Гэтргян

Азербайджан     40˚22′58″N   50˚19′01″E
темп.,
°C
ветер,
м/с
пор.,
м/с
влажн.,
%
обл.,
%
осадки,
мм/ч
давл.,
гПа
погр.,
м
16 января, сб
сб1601:00+8˚ссз68810 0.0 1014280
04:00+7˚ссв45840 0.0 1014168
07:00+7˚юв22860 0.0 1015158
10:00+8˚юв11841 0.0 1017158
13:00+9˚всв328064 0.0 1017344
16:00+10˚вюв447981 0.0 1015389
19:00+9˚вюв4587100 0.0 1016126
22:00+9˚вюв4590100 0.0 1015111
17 января, вс
вс1701:00+9˚вюв5689100 0.0 1013256
04:00+9˚юв4488100 0.0 1011162
07:00+9˚ю4588100 0.0 1009103
10:00+10˚ююз6882100 0.0 1008316
13:00+11˚ююз81070100 0.0 1005387
16:00+10˚ююз10136996 0.0 1002380
19:00+10˚ююз11167517 0.0 1002423
22:00+9˚зюз47778 0.0 1002168
18 января, пн
пн1801:00+7˚з12890 0.0 100289
04:00+8˚ююз598213 0.0 1002217
07:00+9˚ююз9138895 0.0 1001250
10:00+11˚ююз9147297 0.0 1002351
13:00+8˚ссз111481100 0.0 1004701
16:00+8˚ссз11137591 0.0 1007919
19:00+7˚ссз13167882 0.0 1010887
22:00+6˚с11137491 0.0 1013863
19 января, вт
вт1901:00+6˚с101175100 0.0 1015874
04:00+5˚с9117683 0.0 1017686
07:00+5˚с887685 0.0 1018731
10:00+4˚с787492 0.0 1020800
13:00+4˚с6769100 0.0 1020869
16:00+4˚ссв777199 0.0 1018863
19:00+4˚св6772100 0.0 1017790
22:00+4˚ссв6688100 0.1 1017483
20 января, ср
ср2001:00+3˚ссв9996100 3.1 1017481
04:00+4˚с101192100 4.9 1018780
07:00+3˚ссз101195100 2.5 1019741
10:00+4˚с101273100 3.8 10221247
13:00+5˚с10116798 0.1 10231299
16:00+4˚ссв10106796 0.2 10231301
19:00+4˚ссв9106799 0.1 10251118
22:00+4˚ссв8967100 0.1 10261212